sat.trackr.live / text

‹ back to catalog

STARLINK-36052

NORAD 66605 · 2025-270T

PAYLOAD ACTIVE UNKNOWN

§ Identity

Operator
Country
US
Launch date
2025-11-22
Launch site
AFETR
Launch vehicle
Mass (kg)
RCS (m²)

Purposes: comms

External: N2YO · Heavens-Above · Gunter

§ Orbital elements

Epoch: 2026-05-24T20:40:03.675360Z

Period
94.27 min
Inclination
43.0023°
Eccentricity
0.0001194
Mean motion
15.27593552 rev/d
Perigee alt
482.2 km
Apogee alt
483.8 km
Semi-major
6,861.1 km
B*
5.5357e-4
RAAN
346.1427°
Arg perigee
279.5198°
Mean anomaly
80.5519°
Rev number
2,935

§ Raw data

STARLINK-360521 66605U 25270T   26144.86115365  .00015008  00000+0  55357-3 0  99922 66605  43.0023 346.1427 0001194 279.5198  80.5519 15.27593552 29351

JSON: /api/v1/satellites/66605 · /tle

For live sub-satellite position, see the globe view (requires WebGL).

§ Visibility from observer

Set your observer location to see the next 7 days of passes ≥ 10°. The values pass through the URL so the page stays shareable.

No JS? Fill the form by hand. The geolocation button needs JavaScript.